User: anonymous   Login
Location: Unspecified
(0.0000°N, 0.0000°E)
Time: 08:55:05
(UTC+00:00)
Language:

TELSTAR 19V - Orbit

View from above orbital plane
View from above orbital plane
View from above satellite
View from above satellite

Ground track
Ground track

The orbit is defined by the following mean orbital elements,

1 43562U          26145.35735713 +.00000000 +00000-0 +00000-0 0 00005
2 43562   0.0357 154.0869 0002360 307.8827 206.6203  1.00271166    09
Epoch (UTC): 25 May 2026 08:34:35
Eccentricity: 0.0002360
inclination: 0.0357°
perigee height: 35777 km
apogee height: 35797 km
right ascension of ascending node: 154.0869°
argument of perigee: 307.8827°
revolutions per day: 1.00271166
mean anomaly at epoch: 206.6203°

The dashed part of the orbit path shows where the satellite is in the earth's shadow,  

DLR